Location: Baumgarten
(49.0970°N, 12.7493°E)
Time: 18:12:01
(UTC+00:00)

Cosmos 1452 Rocket - Pass Details

Date: 05 July 2020
Orbit: 768 x 774 km, 74.1° (Epoch: 12 August)

Event Time Altitude Azimuth Distance (km) Brightness Sun altitude
Rises 23:25:24 0° 333° (NNW) 3,257 7.8 -18.2°
Reaches altitude 10° 23:27:50 10° 329° (NNW) 2,324 6.8 -18.2°
Maximum altitude 23:32:58 54° 253° (WSW) 936 3.8 -18.1°
Enters shadow 23:35:03 33° 194° (SSW) 1,277 4.1 -18.1°
